Time,TemperatureF,DewpointF,PressureIn,WindDirection,WindDirectionDegrees,WindSpeedMPH,WindSpeedGustMPH,Humidity,HourlyPrecipIn,Conditions,Clouds,dailyrainin,SolarRadiationWatts/m^2,SoftwareType,DateUTC
2014-09-21 00:06:00,59.4,41.0,30.34,North,5,11.0,13.0,50,0.00,,,0.00,0,weatherlink.com 1.10,2014-09-21 06:06:00,
2014-09-21 00:21:00,58.8,40.0,30.34,North,360,9.0,10.0,51,0.00,,,0.00,0,weatherlink.com 1.10,2014-09-21 06:21:00,
2014-09-21 00:36:00,58.7,40.0,30.35,North,9,2.0,6.0,51,0.00,,,0.00,0,weatherlink.com 1.10,2014-09-21 06:36:00,
2014-09-21 00:51:00,58.5,40.0,30.36,NNE,31,0.0,0.0,51,0.00,,,0.00,0,weatherlink.com 1.10,2014-09-21 06:51:00,
2014-09-21 01:06:00,58.5,40.0,30.36,NNE,33,4.0,5.0,51,0.00,,,0.00,0,weatherlink.com 1.10,2014-09-21 07:06:00,
2014-09-21 01:21:00,58.6,40.0,30.36,NE,46,2.0,5.0,51,0.00,,,0.00,0,weatherlink.com 1.10,2014-09-21 07:21:00,
2014-09-21 01:36:00,58.7,40.0,30.36,ENE,71,0.0,4.0,50,0.00,,,0.00,0,weatherlink.com 1.10,2014-09-21 07:36:00,
2014-09-21 01:51:00,57.6,40.0,30.37,ENE,71,0.0,0.0,52,0.00,,,0.00,0,weatherlink.com 1.10,2014-09-21 07:51:00,
2014-09-21 02:06:00,56.7,40.0,30.36,ENE,71,0.0,0.0,53,0.00,,,0.00,0,weatherlink.com 1.10,2014-09-21 08:06:00,
2014-09-21 02:21:00,56.2,40.0,30.37,ENE,71,0.0,0.0,56,0.00,,,0.00,0,weatherlink.com 1.10,2014-09-21 08:21:00,
2014-09-21 02:36:00,55.8,40.0,30.37,ENE,71,0.0,0.0,56,0.00,,,0.00,0,weatherlink.com 1.10,2014-09-21 08:36:00,
2014-09-21 02:51:00,55.3,40.0,30.37,ENE,71,0.0,0.0,56,0.00,,,0.00,0,weatherlink.com 1.10,2014-09-21 08:51:00,
2014-09-21 03:06:00,55.2,40.0,30.37,ENE,78,0.0,0.0,57,0.00,,,0.00,0,weatherlink.com 1.10,2014-09-21 09:06:00,
2014-09-21 03:21:00,55.0,40.0,30.37,SSE,158,0.0,0.0,58,0.00,,,0.00,0,weatherlink.com 1.10,2014-09-21 09:21:00,
2014-09-21 03:36:00,54.8,40.0,30.37,South,174,0.0,0.0,58,0.00,,,0.00,0,weatherlink.com 1.10,2014-09-21 09:36:00,
2014-09-21 03:51:00,54.8,40.0,30.37,South,174,0.0,0.0,57,0.00,,,0.00,0,weatherlink.com 1.10,2014-09-21 09:51:00,
2014-09-21 04:06:00,54.4,40.0,30.37,South,174,0.0,0.0,58,0.00,,,0.00,0,weatherlink.com 1.10,2014-09-21 10:06:00,
2014-09-21 04:21:00,54.3,40.0,30.38,South,174,0.0,0.0,58,0.00,,,0.00,0,weatherlink.com 1.10,2014-09-21 10:21:00,
2014-09-21 04:36:00,54.0,40.0,30.38,South,174,0.0,0.0,59,0.00,,,0.00,0,weatherlink.com 1.10,2014-09-21 10:36:00,
2014-09-21 04:51:00,53.6,40.0,30.38,South,171,0.0,0.0,60,0.00,,,0.00,0,weatherlink.com 1.10,2014-09-21 10:51:00,
2014-09-21 05:06:00,53.6,40.0,30.38,South,170,0.0,7.0,61,0.00,,,0.00,0,weatherlink.com 1.10,2014-09-21 11:06:00,
2014-09-21 05:21:00,53.5,40.0,30.38,South,175,0.0,4.0,61,0.00,,,0.00,0,weatherlink.com 1.10,2014-09-21 11:21:00,
2014-09-21 05:36:00,52.2,40.0,30.38,South,180,0.0,2.0,63,0.00,,,0.00,0,weatherlink.com 1.10,2014-09-21 11:36:00,
2014-09-21 05:51:00,51.3,40.0,30.38,South,180,0.0,3.0,65,0.00,,,0.00,0,weatherlink.com 1.10,2014-09-21 11:51:00,
2014-09-21 06:06:00,51.0,40.0,30.37,South,180,0.0,3.0,65,0.00,,,0.00,0,weatherlink.com 1.10,2014-09-21 12:06:00,
2014-09-21 06:21:00,50.4,40.0,30.37,South,180,0.0,5.0,67,0.00,,,0.00,0,weatherlink.com 1.10,2014-09-21 12:21:00,
2014-09-21 06:36:00,50.0,40.0,30.37,South,180,3.0,3.0,68,0.00,,,0.00,0,weatherlink.com 1.10,2014-09-21 12:36:00,
2014-09-21 06:51:00,50.2,40.0,30.36,South,180,0.0,0.0,67,0.00,,,0.00,0,weatherlink.com 1.10,2014-09-21 12:51:00,
2014-09-21 07:06:00,50.2,40.0,30.37,South,180,0.0,0.0,67,0.00,,,0.00,0,weatherlink.com 1.10,2014-09-21 13:06:00,
2014-09-21 07:21:00,48.1,40.0,30.37,South,180,0.0,0.0,73,0.00,,,0.00,0,weatherlink.com 1.10,2014-09-21 13:21:00,
2014-09-21 07:36:00,48.3,40.0,30.38,South,180,0.0,0.0,72,0.00,,,0.00,9,weatherlink.com 1.10,2014-09-21 13:36:00,
2014-09-21 07:51:00,48.8,40.0,30.38,South,180,0.0,2.0,71,0.00,,,0.00,14,weatherlink.com 1.10,2014-09-21 13:51:00,
2014-09-21 08:07:00,47.3,39.0,30.38,South,180,0.0,5.0,73,0.00,,,0.00,60,weatherlink.com 1.10,2014-09-21 14:07:00,
2014-09-21 08:22:00,48.8,39.0,30.38,South,176,0.0,4.0,70,0.00,,,0.00,114,weatherlink.com 1.10,2014-09-21 14:22:00,
2014-09-21 08:37:00,49.0,40.0,30.38,South,184,3.0,7.0,71,0.00,,,0.00,139,weatherlink.com 1.10,2014-09-21 14:37:00,